�N����,����,�~����,�C��,���x,�C��,����,���ϕ���,�ő�u�ԕ���,�ő厞����,���˗�,�I�_���x,�n�����x,�ő啗���N��,DTYPE
"21/07/18","00:10",0.0,24.5,82.0,1011.2,200.6,0.5,1.4,188.1,0.00,21.3,25.2,"00:05:44",1
"21/07/18","00:20",0.0,24.4,82.1,1010.9,216.9,0.3,1.1,254.7,0.00,21.2,25.2,"00:18:24",1
"21/07/18","00:30",0.0,24.3,82.5,1010.9,259.1,0.3,1.2,84.1,0.00,21.2,25.2,"00:29:12",1
"21/07/18","00:40",0.0,24.4,82.7,1011.2,8.4,0.7,2.4,344.3,0.00,21.3,25.2,"00:39:12",1
"21/07/18","00:50",0.0,24.7,82.5,1011.2,335.4,0.5,1.4,284.1,0.00,21.6,25.2,"00:40:08",1
"21/07/18","01:00",0.0,24.6,82.3,1010.9,278.0,0.5,1.6,191.4,0.00,21.4,25.2,"00:53:20",1
"21/07/18","01:10",0.0,24.6,82.3,1010.7,327.4,0.5,1.6,313.5,0.00,21.4,24.9,"01:08:48",1
"21/07/18","01:20",0.0,24.6,82.3,1010.9,298.2,0.3,1.3,348.1,0.00,21.4,25.1,"01:19:28",1
"21/07/18","01:30",0.0,24.6,82.3,1010.9,177.6,0.5,1.6,160.1,0.00,21.4,25.0,"01:21:04",1
"21/07/18","01:40",0.0,24.5,82.3,1010.7,317.4,0.5,1.7,256.9,0.00,21.3,25.1,"01:36:16",1
"21/07/18","01:50",0.0,24.2,82.4,1010.9,284.9,0.5,1.1,252.5,0.00,21.1,25.0,"01:47:28",1
"21/07/18","02:00",0.0,24.1,83.2,1010.9,300.2,1.0,1.6,341.5,0.00,21.1,25.0,"01:58:16",1
"21/07/18","02:10",0.0,23.8,84.0,1010.4,300.0,1.0,1.4,339.9,0.00,21.0,24.9,"02:00:16",1
"21/07/18","02:20",0.0,23.7,84.8,1010.7,293.9,1.0,1.7,338.9,0.00,21.0,25.0,"02:12:48",1
"21/07/18","02:30",0.0,23.6,85.6,1010.7,294.9,1.2,2.0,303.6,0.00,21.1,24.8,"02:23:44",1
"21/07/18","02:40",0.0,23.3,85.9,1010.4,297.0,0.7,1.4,269.6,0.00,20.8,25.1,"02:36:56",1
"21/07/18","02:50",0.0,23.1,86.6,1010.4,321.9,1.0,1.4,328.8,0.00,20.8,25.1,"02:43:52",1
"21/07/18","03:00",0.0,22.9,86.9,1010.2,317.0,1.0,1.6,301.7,0.00,20.6,24.8,"02:56:32",1
"21/07/18","03:10",0.0,22.7,87.5,1010.2,295.9,0.8,1.4,336.2,0.00,20.6,24.9,"03:03:20",1
"21/07/18","03:20",0.0,22.7,88.0,1010.2,317.1,1.1,2.0,336.6,0.00,20.6,24.7,"03:16:48",1
"21/07/18","03:30",0.0,22.6,88.2,1010.4,316.8,0.8,1.2,319.8,0.00,20.6,24.7,"03:24:48",1
"21/07/18","03:40",0.0,22.6,88.7,1010.4,312.0,1.0,1.3,316.0,0.00,20.7,24.7,"03:37:52",1
"21/07/18","03:50",0.0,22.6,89.2,1010.7,284.8,1.0,1.8,249.6,0.00,20.8,24.7,"03:49:52",1
"21/07/18","04:00",0.0,22.9,89.4,1010.4,298.2,1.1,1.7,310.0,0.00,21.1,24.8,"03:52:32",1
"21/07/18","04:10",0.0,23.0,89.7,1010.4,327.5,0.8,1.2,327.8,0.00,21.3,24.6,"04:08:08",1
"21/07/18","04:20",0.0,23.1,89.9,1010.4,325.6,1.0,1.1,345.9,0.00,21.4,24.6,"04:10:40",1
"21/07/18","04:30",0.0,23.1,90.0,1010.4,308.8,0.7,1.4,260.7,0.00,21.4,24.8,"04:24:56",1
"21/07/18","04:40",0.0,23.1,90.3,1010.7,279.8,0.7,1.1,257.2,0.00,21.5,24.7,"04:35:20",1
"21/07/18","04:50",0.0,23.2,90.4,1010.7,321.2,0.6,1.0,285.6,0.00,21.6,24.7,"04:42:08",1
"21/07/18","05:00",0.0,23.1,90.5,1010.7,318.0,1.1,1.4,318.7,0.00,21.5,24.7,"04:52:08",1
"21/07/18","05:10",0.0,22.9,90.7,1010.9,313.8,0.7,1.3,330.5,0.00,21.3,24.6,"05:01:20",1
"21/07/18","05:20",0.0,23.1,90.9,1010.7,329.9,1.3,3.1,345.1,0.00,21.6,24.6,"05:17:36",1
"21/07/18","05:30",0.0,23.2,91.0,1010.4,323.0,1.0,1.9,341.8,0.00,21.7,24.7,"05:20:16",1
"21/07/18","05:40",0.0,23.4,91.1,1010.7,252.3,0.8,1.6,254.5,0.00,21.9,24.7,"05:38:00",1
"21/07/18","05:50",0.0,23.5,91.1,1010.7,341.0,0.8,1.3,330.7,0.00,22.0,24.7,"05:41:36",1
"21/07/18","06:00",0.0,23.7,91.1,1010.7,331.2,1.0,1.6,355.3,0.00,22.2,24.6,"05:50:40",1
"21/07/18","06:10",0.0,23.8,91.1,1010.9,324.0,0.8,1.4,335.9,0.00,22.3,24.6,"06:00:56",1
"21/07/18","06:20",0.0,24.1,91.2,1011.2,329.2,0.8,1.2,319.2,0.01,22.6,24.7,"06:13:44",1
"21/07/18","06:30",0.0,24.3,91.1,1011.2,307.8,0.3,1.0,317.3,0.01,22.8,24.6,"06:20:40",1
"21/07/18","06:40",0.0,24.4,91.0,1011.2,345.6,0.6,1.3,341.4,0.00,22.9,24.5,"06:34:48",1
"21/07/18","06:50",0.0,24.6,91.1,1010.4,335.6,1.0,1.9,339.4,0.04,23.1,24.7,"06:47:04",1
"21/07/18","07:00",0.0,25.1,90.9,1010.9,306.7,1.1,1.9,341.2,0.10,23.5,24.5,"06:56:00",1
"21/07/18","07:10",0.0,25.8,89.9,1010.7,338.1,0.8,1.7,338.7,0.11,24.1,24.5,"07:02:40",1
"21/07/18","07:20",0.0,26.3,88.3,1010.9,120.1,1.1,2.8,152.9,0.11,24.2,24.8,"07:16:48",1
"21/07/18","07:30",0.0,26.3,86.7,1010.7,97.9,1.0,2.8,86.2,0.07,23.9,24.7,"07:25:52",1
"21/07/18","07:40",0.0,26.4,85.2,1010.4,102.6,1.2,3.2,89.7,0.05,23.8,24.6,"07:33:04",1
"21/07/18","07:50",0.0,26.6,84.3,1010.7,113.6,0.7,2.2,122.9,0.06,23.8,24.8,"07:49:36",1
"21/07/18","08:00",0.0,27.0,83.3,1010.0,94.6,1.1,2.7,34.8,0.16,24.0,24.7,"07:52:48",1
"21/07/18","08:10",0.0,28.1,81.4,1010.0,108.6,1.1,3.2,113.5,0.24,24.7,24.6,"08:03:04",1
"21/07/18","08:20",0.0,28.8,78.2,1009.5,118.6,1.2,3.4,121.2,0.33,24.7,24.4,"08:12:56",1
"21/07/18","08:30",0.0,29.2,76.5,1010.0,115.9,1.3,3.3,71.3,0.31,24.7,24.8,"08:27:12",1
"21/07/18","08:40",0.0,28.4,76.3,1010.2,136.5,1.7,3.9,128.4,0.22,23.9,24.7,"08:37:36",1
"21/07/18","08:50",0.0,29.1,76.5,1010.2,121.0,1.2,3.1,118.2,0.33,24.6,24.9,"08:48:32",1
"21/07/18","09:00",0.0,28.9,75.7,1010.0,117.1,1.3,4.2,168.9,0.20,24.2,24.7,"08:54:48",1
"21/07/18","09:10",0.0,28.8,75.1,1010.2,118.5,1.3,3.3,88.3,0.23,24.0,24.9,"09:05:44",1
"21/07/18","09:20",0.0,28.5,75.4,1009.7,93.6,1.1,2.6,101.2,0.14,23.8,24.8,"09:16:40",1
"21/07/18","09:30",0.0,28.8,75.8,1009.7,104.1,1.2,3.1,121.9,0.25,24.1,24.9,"09:27:20",1
"21/07/18","09:40",0.0,29.2,74.9,1009.5,105.7,1.1,3.3,99.2,0.23,24.3,25.1,"09:30:24",1
"21/07/18","09:50",0.0,29.3,74.0,1010.0,86.2,1.1,2.8,80.4,0.30,24.2,24.9,"09:42:56",1
"21/07/18","10:00",0.0,29.8,72.8,1010.0,85.0,1.2,3.9,98.3,0.32,24.4,25.0,"09:55:04",1
"21/07/18","10:10",0.0,29.8,71.8,1010.0,102.1,1.3,2.8,93.0,0.32,24.2,25.1,"10:00:16",1
"21/07/18","10:20",0.0,29.7,72.3,1010.0,99.4,1.3,3.5,152.1,0.24,24.2,25.2,"10:12:08",1
"21/07/18","10:30",0.0,29.6,71.7,1010.2,111.9,1.3,3.3,97.3,0.26,24.0,25.0,"10:21:36",1
"21/07/18","10:40",0.0,30.0,72.7,1010.4,116.4,1.3,3.6,139.4,0.35,24.6,25.1,"10:39:44",1
"21/07/18","10:50",0.0,30.0,71.6,1010.2,107.3,1.5,3.4,169.6,0.28,24.3,25.3,"10:40:02",1
"21/07/18","11:00",0.0,29.6,72.0,1009.7,113.6,1.2,3.4,94.5,0.16,24.1,25.3,"10:59:12",1
"21/07/18","11:10",0.0,29.1,72.8,1009.3,80.7,1.2,3.1,92.4,0.14,23.8,25.3,"11:00:16",1
"21/07/18","11:20",0.0,29.4,73.6,1009.3,102.4,1.5,3.2,78.2,0.21,24.2,25.2,"11:10:08",1
"21/07/18","11:30",0.0,29.9,73.9,1009.5,114.4,1.2,3.2,88.3,0.29,24.8,25.4,"11:25:28",1
"21/07/18","11:40",0.0,30.0,71.4,1009.3,117.2,1.6,4.0,48.9,0.29,24.3,25.2,"11:35:20",1
"21/07/18","11:50",0.0,29.6,72.4,1009.0,118.6,1.3,2.9,110.4,0.20,24.1,25.4,"11:42:00",1
"21/07/18","12:00",0.0,29.7,72.1,1009.0,94.8,1.3,4.1,109.2,0.20,24.2,25.6,"11:59:44",1
"21/07/18","12:10",0.0,31.2,71.3,1009.0,119.8,1.3,3.9,136.5,0.58,25.4,25.4,"12:06:48",1
"21/07/18","12:20",0.0,32.0,67.0,1009.7,97.9,1.6,4.3,112.4,0.61,25.1,25.4,"12:16:24",1
"21/07/18","12:30",0.0,32.0,67.2,1009.7,110.8,1.7,4.4,118.3,0.49,25.2,25.6,"12:28:48",1
"21/07/18","12:40",0.0,31.3,67.6,1009.3,115.2,1.3,3.1,117.8,0.26,24.6,25.6,"12:31:04",1
"21/07/18","12:50",0.0,30.4,69.2,1009.5,102.0,1.7,3.7,65.8,0.19,24.2,25.8,"12:40:48",1
"21/07/18","13:00",0.0,31.1,71.4,1009.3,103.9,1.3,3.4,137.5,0.38,25.4,25.8,"12:50:24",1
"21/07/18","13:10",0.0,31.7,66.9,1009.7,81.6,1.5,3.3,105.7,0.43,24.8,25.7,"13:07:52",1
"21/07/18","13:20",0.0,31.5,68.3,1009.3,95.9,1.2,3.6,125.9,0.27,25.0,25.7,"13:11:44",1
"21/07/18","13:30",0.0,31.0,68.5,1009.5,110.0,1.3,3.1,102.7,0.19,24.6,25.7,"13:29:28",1
"21/07/18","13:40",0.0,32.0,70.0,1009.5,115.6,1.6,4.8,105.7,0.45,25.9,25.9,"13:37:36",1
"21/07/18","13:50",0.0,32.7,65.5,1010.0,108.2,1.6,3.3,148.0,0.56,25.4,26.1,"13:43:36",1
"21/07/18","14:00",0.0,32.7,65.0,1009.7,116.1,2.1,5.4,137.1,0.51,25.3,26.0,"13:58:56",1
"21/07/18","14:10",0.0,32.6,65.0,1009.7,128.6,2.2,4.5,140.7,0.56,25.2,25.7,"14:09:44",1
"21/07/18","14:20",0.0,32.8,64.5,1009.7,106.8,1.5,3.3,128.0,0.49,25.3,25.9,"14:13:28",1
"21/07/18","14:30",0.0,32.3,65.4,1009.7,102.0,1.6,3.6,109.3,0.30,25.0,26.2,"14:21:20",1
"21/07/18","14:40",0.0,32.4,66.1,1009.7,82.7,1.1,2.8,78.6,0.33,25.3,26.3,"14:34:56",1
"21/07/18","14:50",0.0,31.5,66.8,1009.3,84.2,1.5,4.9,43.0,0.18,24.6,26.3,"14:45:04",1
"21/07/18","15:00",0.0,31.0,68.2,1009.5,97.1,1.1,4.1,52.1,0.12,24.5,26.3,"14:54:56",1
"21/07/18","15:10",0.0,30.7,69.8,1008.3,85.2,1.2,3.7,127.8,0.09,24.6,26.4,"15:05:36",1
"21/07/18","15:20",0.0,30.7,70.3,1008.6,93.8,1.2,3.6,134.0,0.12,24.7,26.4,"15:19:52",1
"21/07/18","15:30",0.0,30.5,71.4,1008.6,111.6,1.2,4.2,111.7,0.10,24.8,26.4,"15:20:56",1
"21/07/18","15:40",0.0,30.2,71.6,1008.1,91.6,1.2,2.9,123.7,0.10,24.5,26.4,"15:38:48",1
"21/07/18","15:50",0.0,30.2,72.1,1008.3,102.9,1.0,2.5,53.8,0.10,24.7,26.5,"15:45:20",1
"21/07/18","16:00",0.0,30.1,72.1,1008.3,105.8,1.0,3.3,81.9,0.07,24.6,26.6,"15:56:32",1
"21/07/18","16:10",0.0,30.0,72.1,1008.3,107.2,0.8,2.9,192.3,0.06,24.5,26.4,"16:08:56",1
"21/07/18","16:20",0.0,30.0,72.7,1008.3,119.2,0.8,2.2,56.2,0.04,24.6,26.4,"16:14:00",1
"21/07/18","16:30",0.0,29.8,73.4,1008.3,77.0,0.7,2.2,176.1,0.02,24.6,26.5,"16:21:52",1
"21/07/18","16:40",0.0,29.6,73.1,1009.0,310.5,1.2,3.5,188.7,0.00,24.3,26.3,"16:39:20",1
"21/07/18","16:50",7.0,27.4,77.6,1007.6,301.9,2.0,4.7,220.0,0.01,23.2,26.4,"16:41:52",1
"21/07/18","17:00",0.0,26.6,81.5,1007.8,320.4,0.8,2.5,348.1,0.03,23.2,26.4,"16:52:00",1
"21/07/18","17:10",0.0,26.6,83.8,1008.1,327.0,0.8,3.4,349.4,0.04,23.7,26.4,"17:04:56",1
"21/07/18","17:20",0.0,26.6,85.1,1008.3,229.6,0.7,1.6,224.5,0.04,23.9,26.3,"17:13:52",1
"21/07/18","17:30",0.0,26.4,86.2,1008.6,291.7,0.5,1.4,249.9,0.03,23.9,26.3,"17:23:36",1
"21/07/18","17:40",0.0,26.6,87.0,1008.8,298.7,0.7,1.2,338.0,0.04,24.3,26.5,"17:36:32",1
"21/07/18","17:50",0.0,26.4,87.7,1009.0,271.4,0.3,1.3,253.3,0.03,24.2,26.5,"17:48:08",1
"21/07/18","18:00",0.0,26.3,88.2,1008.6,291.6,0.5,1.2,244.5,0.02,24.2,26.3,"17:54:48",1
"21/07/18","18:10",0.0,26.2,88.7,1008.8,289.8,0.7,1.3,337.8,0.02,24.2,26.3,"18:01:52",1
"21/07/18","18:20",0.0,26.2,89.1,1009.0,304.2,0.5,1.0,304.5,0.01,24.3,26.3,"18:10:24",1
"21/07/18","18:30",0.0,26.2,89.5,1009.0,289.5,0.6,1.1,290.7,0.02,24.4,26.3,"18:23:44",1
"21/07/18","18:40",0.0,26.3,89.8,1008.8,306.0,1.0,2.1,335.6,0.01,24.5,26.3,"18:38:16",1
"21/07/18","18:50",0.0,26.1,90.2,1008.8,327.6,1.3,2.0,315.7,0.01,24.4,26.5,"18:45:04",1
"21/07/18","19:00",0.0,26.0,90.4,1009.3,291.9,0.8,1.8,295.5,0.00,24.3,26.3,"18:58:08",1
"21/07/18","19:10",0.0,25.8,90.6,1009.3,310.3,0.8,1.3,281.6,0.00,24.2,26.4,"19:01:36",1
"21/07/18","19:20",0.0,25.7,90.8,1009.3,307.7,0.8,1.2,266.8,0.00,24.1,26.3,"19:11:12",1
"21/07/18","19:30",0.0,25.6,91.0,1009.0,330.5,1.1,1.9,334.4,0.00,24.1,26.4,"19:21:28",1
"21/07/18","19:40",0.0,25.3,91.2,1009.3,297.8,0.7,1.2,318.5,0.00,23.8,26.5,"19:36:32",1
"21/07/18","19:50",0.0,25.1,91.5,1009.3,317.1,0.8,1.3,301.8,0.00,23.7,26.1,"19:44:16",1
"21/07/18","20:00",0.0,25.0,91.6,1009.0,312.4,0.6,1.1,321.6,0.00,23.6,26.3,"19:50:56",1
"21/07/18","20:10",0.0,24.9,91.7,1009.3,265.9,0.3,0.9,254.7,0.00,23.5,26.0,"20:08:16",1
"21/07/18","20:20",0.0,24.8,91.9,1009.3,297.0,0.6,1.0,277.5,0.00,23.4,26.1,"20:14:00",1
"21/07/18","20:30",0.0,24.9,92.0,1009.3,322.2,0.7,1.1,327.0,0.00,23.5,26.1,"20:20:32",1
"21/07/18","20:40",0.0,24.9,92.1,1009.7,301.9,0.6,1.1,313.0,0.00,23.6,26.2,"20:38:48",1
"21/07/18","20:50",0.0,25.0,92.2,1009.7,324.8,0.7,1.4,320.0,0.00,23.7,26.2,"20:46:48",1
"21/07/18","21:00",0.0,24.9,92.3,1009.7,301.8,0.7,1.2,258.5,0.00,23.6,26.0,"20:56:48",1
"21/07/18","21:10",0.0,24.9,92.5,1009.7,314.1,1.1,1.3,339.8,0.00,23.6,26.1,"21:00:08",1
"21/07/18","21:20",0.0,24.8,92.5,1010.0,312.5,0.8,1.3,318.4,0.00,23.5,26.2,"21:18:00",1
"21/07/18","21:30",0.0,24.7,92.8,1010.0,291.7,0.6,1.1,319.0,0.00,23.5,25.9,"21:29:44",1
"21/07/18","21:40",0.0,24.7,92.8,1010.2,288.3,1.0,1.6,317.9,0.00,23.5,26.2,"21:38:16",1
"21/07/18","21:50",0.0,24.6,93.0,1010.2,302.9,1.0,1.9,341.8,0.00,23.4,26.0,"21:44:24",1
"21/07/18","22:00",0.0,24.4,93.1,1010.0,330.7,0.7,1.3,326.1,0.00,23.3,26.0,"21:56:32",1
"21/07/18","22:10",0.0,24.3,93.3,1010.4,318.7,0.8,1.2,308.4,0.00,23.2,26.0,"22:09:28",1
"21/07/18","22:20",0.0,24.2,93.3,1010.4,318.5,0.8,1.7,320.3,0.00,23.1,25.9,"22:18:08",1
"21/07/18","22:30",0.0,24.2,93.5,1010.4,326.9,1.0,1.4,316.8,0.00,23.1,25.9,"22:23:12",1
"21/07/18","22:40",0.0,23.9,93.5,1010.4,318.6,0.8,1.2,336.5,0.00,22.8,25.9,"22:33:20",1
"21/07/18","22:50",0.0,23.9,93.7,1010.2,328.7,1.0,1.2,312.3,0.00,22.9,25.8,"22:40:48",1
"21/07/18","23:00",0.0,23.9,93.8,1010.0,310.5,1.1,1.7,315.0,0.00,22.9,25.7,"22:51:44",1
"21/07/18","23:10",0.0,23.8,93.8,1010.4,305.8,0.8,1.2,268.5,0.00,22.8,25.8,"23:00:08",1
"21/07/18","23:20",0.0,23.6,93.9,1010.2,296.0,0.8,1.3,325.2,0.00,22.6,25.7,"23:12:00",1
"21/07/18","23:30",0.0,23.6,94.0,1010.7,303.0,0.8,1.6,325.0,0.00,22.6,25.6,"23:22:56",1
"21/07/18","23:40",0.0,23.7,94.1,1010.4,317.0,1.2,1.7,333.0,0.00,22.7,25.8,"23:33:52",1
"21/07/18","23:50",0.0,23.5,94.2,1010.4,314.0,1.0,1.3,314.4,0.00,22.6,25.7,"23:40:16",1
"21/07/18","24:00",0.0,23.6,94.2,1010.4,308.2,1.0,1.6,308.6,0.00,22.7,25.5,"23:53:04",1
